Weather History for Minneapolis, MN

Change the Weather History Date:

Wednesday, October 24, 2012

  Actual Average Record
Temperature  
Mean Temperature 54 °F 46 °F  
Max Temperature 60 °F 54 °F 80 °F (1989)
Min Temperature 47 °F 37 °F 15 °F (1887)
Degree Days  
Heating Degree Days 11 19  
Month to date heating degree days 347 357  
Since 1 July heating degree days 472 530  
Cooling Degree Days 0 0  
Month to date cooling degree days 0 3  
Year to date cooling degree days 1131 750  
Growing Degree Days 4 (Base 50)    
Moisture  
Dew Point 53 °F    
Average Humidity 89    
Maximum Humidity 100    
Minimum Humidity 78    
Precipitation  
Precipitation 0.18 in 0.07 in 1.00 in (1899)
Month to date precipitation 0.55 2.00  
Year to date precipitation 26.57 27.25  
Snow  
Snow 0.00 in 0.10 in 0.20 in (1942)
Month to date snowfall 0.0 0.3  
Since 1 July snowfall T 0.3  
Since 1 September snowfall 0.0 0.3  
Snow Depth 0.00 in    
Sea Level Pressure  
Sea Level Pressure 29.79 in    
Wind  
Wind Speed 8 mph (NNW)    
Max Wind Speed 21 mph    
Max Gust Speed 30 mph    
Visibility 5 miles    
Events Rain , Thunderstorm    
T = Trace of Precipitation, MM = Missing Value Source: NWS Daily Summary

Daily Weather History Graph

Daily Weather History Graph

Search for Another Location

Airport:

Trip Planner

Search our weather history database for the weather conditions in past years. The results will help you decide how hot, cold, wet, or windy it might be!

Date:

Astronomy

Oct. 24, 2012 Rise Set
Actual Time 7:41 AM CDT 6:12 PM CDT
Civil Twilight 7:10 AM CDT 6:42 PM CDT
Nautical Twilight 6:36 AM CDT 7:16 PM CDT
Astronomical Twilight 6:02 AM CDT 7:50 PM CDT
Moon 3:39 PM CDT (10/24) 2:24 AM CDT (10/24)
Length of Visible Light 11h 31m
Length of Day
10h 31m
Waxing Gibbous, 76% of the Moon is Illuminated
Oct 24
Waxing Gibbous
Oct 29
Full
Nov 6
Last Quarter
Nov 13
New
Nov 20
First Quarter

Hourly Weather History & Observations

Time (CDT) Temp. Dew Point Humidity Pressure Visibility Wind Dir Wind Speed Gust Speed Precip Events Conditions
12:34 AM 59.0 °F 55.4 °F 88% 29.79 in 6.0 mi Calm Calm - N/A   Mostly Cloudy
12:53 AM 57.9 °F 55.0 °F 90% 29.80 in 6.0 mi West 3.5 mph - N/A   Mostly Cloudy
1:02 AM 59.0 °F 55.4 °F 88% 29.80 in 6.0 mi Calm Calm - N/A   Mostly Cloudy
1:53 AM 57.9 °F 55.0 °F 90% 29.80 in 5.0 mi Calm Calm - N/A   Overcast
2:53 AM 59.0 °F 55.0 °F 87% 29.81 in 5.0 mi Calm Calm - N/A   Overcast
3:14 AM 59.0 °F 55.4 °F 88% 29.81 in 5.0 mi Calm Calm - N/A   Overcast
3:53 AM 57.9 °F 54.0 °F 87% 29.81 in 5.0 mi Calm Calm - N/A   Overcast
4:53 AM 57.9 °F 55.0 °F 90% 29.82 in 5.0 mi West 5.8 mph - N/A   Overcast
5:53 AM 57.0 °F 54.0 °F 89% 29.81 in 5.0 mi Calm Calm - N/A   Mostly Cloudy
6:53 AM 57.0 °F 54.0 °F 89% 29.84 in 4.0 mi NW 4.6 mph - N/A   Overcast
7:25 AM 57.2 °F 53.6 °F 88% 29.84 in 4.0 mi Calm Calm - N/A   Overcast
7:53 AM 57.0 °F 54.0 °F 89% 29.85 in 4.0 mi Calm Calm - N/A   Overcast
8:53 AM 57.9 °F 54.0 °F 87% 29.85 in 5.0 mi North 5.8 mph - N/A   Overcast
9:53 AM 57.9 °F 54.0 °F 87% 29.84 in 5.0 mi North 9.2 mph - N/A   Overcast
10:23 AM 57.2 °F 53.6 °F 88% 29.83 in 5.0 mi North 9.2 mph - N/A   Overcast
10:53 AM 60.1 °F 54.0 °F 80% 29.82 in 7.0 mi North 11.5 mph - N/A   Overcast
11:53 AM 60.1 °F 53.1 °F 78% 29.83 in 8.0 mi North 8.1 mph - N/A   Overcast
12:53 PM 59.0 °F 54.0 °F 83% 29.80 in 7.0 mi North 9.2 mph - N/A   Overcast
1:53 PM 57.0 °F 55.0 °F 93% 29.78 in 5.0 mi North 10.4 mph - 0.00 in Rain Light Rain
2:11 PM 57.2 °F 55.4 °F 94% 29.77 in 5.0 mi North 10.4 mph - 0.01 in Rain Light Rain
2:53 PM 57.0 °F 55.0 °F 93% 29.75 in 3.0 mi North 9.2 mph - 0.01 in   Light Drizzle
3:42 PM 57.2 °F 55.4 °F 94% 29.75 in 2.5 mi NNW 9.2 mph - 0.01 in   Light Drizzle
3:53 PM 57.0 °F 55.0 °F 93% 29.75 in 1.5 mi NNW 10.4 mph - 0.01 in Rain Light Rain
4:04 PM 55.4 °F 55.4 °F 100% 29.75 in 1.0 mi North 11.5 mph - 0.01 in Rain Light Rain
4:19 PM 55.4 °F 55.4 °F 100% 29.74 in 1.5 mi North 9.2 mph - 0.02 in Rain Light Rain
4:36 PM 55.4 °F 55.4 °F 100% 29.74 in 1.8 mi NNW 9.2 mph - 0.03 in Rain Light Rain
4:53 PM 55.9 °F 55.0 °F 97% 29.74 in 2.5 mi NNW 10.4 mph - 0.03 in Rain Light Rain
5:14 PM 55.4 °F 53.6 °F 94% 29.74 in 3.0 mi NNW 12.7 mph - 0.04 in Rain Rain
5:31 PM 53.6 °F 53.6 °F 100% 29.76 in 4.0 mi NW 9.2 mph 18.4 mph 0.04 in Rain Light Rain
5:53 PM 54.0 °F 52.0 °F 93% 29.76 in 4.0 mi NW 9.2 mph - 0.05 in Rain Light Rain
6:14 PM 53.6 °F 51.8 °F 94% 29.76 in 4.0 mi NNW 10.4 mph - 0.00 in   Light Drizzle
6:53 PM 53.1 °F 51.1 °F 93% 29.77 in 6.0 mi NNW 16.1 mph 21.9 mph 0.00 in   Light Drizzle
7:39 PM 51.8 °F 50.0 °F 94% 29.77 in 5.0 mi NNW 13.8 mph - 0.01 in Rain Light Rain
7:53 PM 51.8 °F 50.0 °F 94% 29.77 in 5.0 mi NNW 10.4 mph 18.4 mph N/A Rain Light Rain
8:53 PM 51.1 °F 48.0 °F 89% 29.78 in 8.0 mi North 11.5 mph 24.2 mph 0.00 in   Overcast
9:12 PM 51.8 °F 48.2 °F 88% 29.77 in 10.0 mi North 12.7 mph - N/A   Overcast
9:53 PM 51.1 °F 48.0 °F 89% 29.77 in 10.0 mi North 13.8 mph 28.8 mph N/A   Overcast
10:53 PM 50.0 °F 46.9 °F 89% 29.77 in 10.0 mi NNW 17.3 mph 21.9 mph N/A   Overcast
11:17 PM 50.0 °F 46.4 °F 87% 29.76 in 7.0 mi NNW 13.8 mph - N/A   Overcast
11:30 PM 48.2 °F 46.4 °F 93% 29.76 in 2.0 mi NNW 11.5 mph - 0.05 in Rain Rain
11:33 PM 48.2 °F 46.4 °F 93% 29.77 in 2.5 mi NNW 12.7 mph - 0.05 in Rain , Thunderstorm Thunderstorms and Rain
11:41 PM 48.2 °F 46.4 °F 93% 29.77 in 4.0 mi North 13.8 mph 20.7 mph 0.06 in Rain , Thunderstorm Light Thunderstorms and Rain
11:53 PM 48.0 °F 45.0 °F 89% 29.76 in 6.0 mi North 17.3 mph 24.2 mph 0.06 in Rain Light Rain